Location: �terpigny
(49.8910°N, 2.9249°E)
Time: 15:01:49
(UTC+00:00)

EO-88 - Pass Details

Date: 03 July 2022
Orbit: 453 x 461 km, 97.3° (Epoch: 14 August)

Event Time Altitude Azimuth Distance (km) Brightness Sun altitude
Exits shadow 22:25:54 - 226° (SW) 2,105 ? -14.7°
Reaches altitude 10° 22:28:02 10° 253° (WSW) 1,628 ? -14.8°
Maximum altitude 22:29:11 11° 272° (W) 1,553 ? -14.9°
Drops below altitude 10° 22:30:19 10° 291° (WNW) 1,632 ? -14.9°
Sets 22:33:44 0° 327° (NNW) 2,514 ? -15.1°
